sim
Sign-in with your pilot id or email,
or register
Callsign
Passwort

Schedule Details

Flight Number: UAE9889 (A)
Departure: Shanghai Pudong International Airport (ZSPD) at 22:40
Arrival: Mumbai Chhatrapati Shivaji International Airport (VABB) at 05:55
Route: Emirates Cargo Schedule. Enter filed route here before submitting Pirep.

Weather Information
Getting current METAR information for ZSPD 152230Z 13003G09MPS 100V180 6000 NSC 14/12 Q1020 NOSIG
Getting current METAR information for VABB 152230Z 36004KT 2100 HZ NSC 24/20 Q1011 NOSIG

Schedule Frequency

Route Map